Wind_Speed
21 20 20 20 20 19 19 20 20 21 21 22 23 23 24 25 26 27 28 28 29 30 31 32 32 32 33 33 33 33 33 33 33 33 34 34 34 34 34 33 33 33 32
24 23 23 23 22 22 22 22 22 23 23 24 25 25 26 27 28 28 29 30 31 32 33 33 34 34 34 34 34 34 34 35 35 35 35 35 35 35 35 35 35 34 34
27 27 26 26 25 25 25 25 25 25 26 26 27 27 28 28 29 30 31 32 33 34 34 35 35 35 35 36 36 36 36 36 36 36 36 36 36 36 36 36 35 35 36
30 30 29 29 28 27 27 28 28 28 28 28 29 29 29 30 31 31 32 34 35 35 36 36 37 37 37 37 37 37 37 37 37 37 37 37 36 37 37 37 37 37 37
34 33 33 32 31 30 30 30 30 30 30 31 31 31 31 32 32 33 34 35 36 37 37 38 38 38 38 38 38 38 38 38 38 38 37 37 37 37 38 38 38 38 38
38 37 36 36 35 34 34 33 33 33 33 33 33 33 33 34 34 35 36 37 38 39 39 39 39 39 39 39 39 39 39 38 38 38 37 37 37 38 38 39 39 40 40
41 40 39 39 38 37 37 36 36 36 36 36 36 36 35 35 36 37 38 39 40 40 40 41 41 41 41 41 41 40 40 39 39 38 38 38 39 39 40 39 40 40 41
45 44 42 41 41 40 40 39 39 39 38 39 39 39 37 37 37 39 40 41 41 42 42 43 43 43 43 42 42 41 40 39 38 38 39 39 40 40 40 40 40 41 41
46 45 44 44 44 43 42 42 41 41 41 41 41 41 41 40 40 39 40 41 42 43 44 44 44 44 43 43 42 42 41 40 40 40 40 41 41 41 41 41 41 41 40
48 47 47 47 46 46 45 44 44 43 43 43 43 43 43 43 43 42 41 41 42 43 44 44 44 44 43 43 42 41 41 40 41 41 41 41 40 41 41 41 41 41 40
51 50 49 48 48 47 47 47 46 46 45 45 45 44 44 44 44 45 44 44 44 44 45 44 44 43 43 43 42 41 41 41 41 41 41 41 41 40 40 40 40 40 39
51 51 52 51 50 50 49 48 48 48 47 47 46 46 46 46 46 46 46 46 46 45 45 45 44 44 44 43 42 42 41 41 41 41 41 41 40 40 40 40 39 39 39
52 52 52 52 51 51 50 50 50 49 49 49 48 48 48 48 47 47 47 46 46 45 45 45 45 45 44 43 43 42 42 42 41 41 40 40 39 39 39 39 38 38 38
53 53 52 52 52 52 52 52 52 52 51 51 50 49 49 49 49 48 48 47 46 46 45 45 45 45 44 44 43 42 42 42 41 40 39 39 39 38 38 38 38 38 38
53 53 53 53 53 52 52 52 52 51 51 52 51 50 49 48 47 47 47 47 47 46 45 45 45 44 44 43 42 41 41 41 40 40 39 39 39 38 38 38 38 38 38
51 52 52 53 52 52 52 52 52 52 52 51 50 49 49 48 47 47 47 46 46 46 45 44 43 43 42 41 41 41 41 41 40 40 40 39 39 39 38 38 38 38 39
51 51 52 52 52 52 52 52 52 51 50 50 49 48 47 47 47 47 47 47 46 45 44 43 42 42 41 40 40 41 41 40 40 40 40 40 39 39 39 39 39 39 40
51 51 51 52 51 51 51 51 51 50 49 48 48 48 48 48 47 46 46 46 45 44 43 41 41 40 40 40 40 41 40 40 40 40 40 40 40 40 41 41 40 40 41
50 50 50 50 51 51 51 50 49 48 48 48 48 48 47 47 46 45 45 44 43 42 41 40 39 39 39 40 40 40 40 40 40 40 40 41 41 41 41 41 41 41 42
47 48 48 48 48 48 48 48 47 47 47 47 46 45 45 44 44 43 43 42 41 40 39 39 39 39 39 39 39 39 40 40 40 40 41 41 41 41 42 42 42 42 42
44 45 45 45 45 45 45 45 45 45 45 44 44 43 43 42 42 41 40 39 39 38 38 38 39 38 39 39 39 39 39 40 40 41 41 41 42 42 42 42 42 42 43
42 43 43 43 43 43 43 43 43 43 43 43 42 42 41 40 40 39 38 38 38 38 38 38 38 38 39 39 39 39 39 40 40 40 41 42 42 42 42 43 43 43 43
41 41 41 41 41 41 41 42 42 42 42 41 41 40 39 39 38 38 37 37 37 37 38 38 38 38 38 38 39 39 40 40 41 41 41 42 43 43 44 44 45 45 45
39 39 39 39 39 40 40 40 40 40 40 39 38 38 37 37 37 36 36 36 36 37 37 37 38 38 38 39 39 39 40 41 41 41 42 43 44 44 45 45 46 46 47
37 38 38 37 37 38 38 38 38 37 37 36 36 36 36 36 35 35 35 35 36 37 37 37 38 38 38 39 39 40 40 41 41 42 43 44 44 44 45 45 46 47 47
35 36 36 35 35 35 35 35 35 35 34 35 35 35 34 34 34 34 34 35 36 36 36 37 37 38 38 39 40 41 41 42 42 43 44 44 44 44 44 45 47 47 48
Wind_Direction
261 265 269 272 276 280 283 286 288 291 293 295 297 298 299 299 300 301 302 302 303 303 304 304 305 305 305 304 304 304 303 302 302 301 300 300 299 298 297 295 294 293 291
260 263 267 270 273 276 279 282 285 287 290 292 293 294 295 296 297 299 299 300 301 302 303 303 304 304 304 304 304 303 302 301 301 300 299 298 297 297 296 294 293 291 290
260 262 265 268 271 273 276 279 281 284 286 288 290 291 292 293 295 296 297 298 300 301 301 302 302 303 303 303 303 302 302 301 300 299 299 298 297 296 295 293 292 291 289
260 263 265 268 270 272 275 278 279 282 284 286 287 288 289 291 292 293 295 297 299 299 300 301 302 302 302 302 302 301 300 299 299 299 298 297 296 295 294 293 291 290 288
260 263 265 268 270 272 274 276 278 280 282 284 285 287 288 289 290 292 294 296 297 298 299 300 301 301 301 301 301 299 299 298 298 297 296 296 295 294 293 292 290 289 288
259 261 264 267 270 271 273 275 277 279 281 283 284 285 286 288 289 291 293 295 297 297 298 300 300 301 300 300 300 299 298 297 296 296 295 295 294 293 293 292 290 289 288
259 261 263 266 269 270 272 274 276 278 279 281 283 284 285 286 288 290 293 295 296 297 298 299 300 300 299 299 298 297 296 295 295 294 294 294 294 293 292 290 289 288 288
259 260 262 265 267 269 271 273 275 277 278 280 283 283 284 284 286 289 292 294 295 296 297 298 298 299 298 298 297 297 296 295 294 293 293 293 294 294 292 290 289 289 288
257 260 262 264 266 268 270 272 274 276 277 279 282 284 283 283 284 287 290 292 294 295 296 296 297 297 297 296 296 295 294 294 293 293 292 293 293 293 293 291 290 289 288
256 259 261 263 265 266 269 271 272 274 276 278 280 282 283 284 285 286 287 290 292 293 293 294 295 295 295 295 295 294 294 293 293 293 293 293 293 293 292 291 290 289 287
257 258 260 262 264 266 268 270 271 273 275 277 280 281 283 284 285 287 288 289 290 291 292 293 293 294 294 294 294 293 293 293 293 293 293 293 293 292 292 291 290 289 287
258 259 260 261 263 265 267 269 270 271 274 276 278 280 282 283 284 286 288 289 289 291 292 293 293 294 293 293 293 293 292 292 293 293 293 293 293 292 292 291 290 288 287
258 260 261 261 263 265 266 268 270 271 273 275 277 279 280 282 283 285 287 288 288 289 291 292 292 293 292 292 292 292 292 293 293 293 292 292 292 292 292 292 290 288 287
258 259 261 262 263 265 267 269 270 271 273 275 276 278 280 282 283 284 286 286 287 289 290 290 291 291 291 291 291 291 292 293 292 292 292 292 293 293 292 292 290 289 287
259 261 261 262 264 265 266 268 270 271 273 275 276 278 280 282 283 284 285 286 287 288 289 289 289 289 289 290 291 291 292 292 291 291 292 292 292 292 292 292 291 289 287
261 262 262 264 265 266 267 269 270 272 273 275 277 278 280 281 282 283 284 285 286 288 288 288 288 288 288 289 290 291 292 292 291 291 292 292 292 291 291 291 291 290 288
262 263 265 266 267 268 270 270 271 273 274 276 277 278 280 281 282 283 284 284 285 286 287 287 287 288 288 289 290 291 292 292 291 292 292 292 291 291 291 290 290 289 287
264 265 266 267 267 268 270 271 272 273 275 276 276 278 279 281 281 282 283 283 284 285 286 286 287 287 288 289 290 291 292 292 292 293 292 292 291 291 291 290 290 288 287
265 265 266 267 268 268 269 271 271 273 274 275 276 277 279 279 280 281 282 283 283 284 285 285 286 287 288 289 291 292 292 293 293 293 293 292 292 291 291 290 290 289 288
266 266 267 267 268 269 269 270 271 271 272 275 276 277 278 279 280 281 281 281 282 283 284 285 286 288 288 289 291 292 293 293 293 293 293 292 292 292 292 291 290 289 288
266 266 267 267 268 268 269 269 270 271 272 273 275 277 278 279 279 279 280 280 281 283 284 285 287 288 289 290 291 292 293 294 294 294 294 293 293 293 293 291 291 291 290
266 266 266 267 267 267 268 268 269 270 272 274 275 276 277 277 278 278 279 280 281 283 284 286 287 288 289 290 291 292 294 294 295 295 295 294 294 294 293 292 292 292 291
265 265 266 266 267 267 268 268 269 270 271 273 274 274 275 276 277 277 278 280 281 283 285 286 287 288 290 290 292 293 294 295 295 296 296 296 296 295 294 293 292 292 291
264 265 266 266 266 267 268 268 269 270 270 271 271 273 274 275 276 277 279 280 282 284 286 286 287 289 290 291 292 294 295 295 296 296 297 298 298 296 295 294 293 293 292
264 265 265 266 268 268 268 268 268 268 268 269 271 272 273 274 276 277 279 281 283 285 285 287 288 290 291 292 293 295 295 295 296 297 298 299 299 298 298 297 296 295 295
264 265 265 266 267 268 268 267 267 267 267 269 271 272 273 274 276 278 280 283 284 286 287 288 289 290 291 292 294 296 296 296 297 298 299 299 300 299 299 298 297 297 296
Height
5872 5872 5872 5872 5872 5872 5872 5871 5870 5869 5868 5867 5866 5865 5863 5861 5860 5858 5856 5854 5852 5850 5848 5846 5843 5841 5839 5836 5834 5831 5829 5826 5824 5821 5819 5817 5814 5812 5810 5808 5807 5805 5803
5867 5868 5868 5868 5868 5868 5868 5867 5866 5865 5864 5863 5862 5860 5859 5857 5855 5853 5851 5849 5847 5845 5842 5840 5838 5835 5833 5830 5828 5825 5822 5820 5817 5815 5812 5810 5807 5805 5803 5801 5800 5798 5796
5862 5863 5863 5863 5863 5863 5863 5862 5861 5860 5859 5858 5857 5855 5854 5852 5850 5847 5845 5843 5841 5839 5837 5834 5832 5829 5827 5824 5821 5819 5816 5813 5810 5808 5805 5802 5800 5798 5796 5794 5792 5790 5789
5856 5857 5857 5858 5858 5858 5857 5857 5856 5855 5854 5853 5851 5850 5848 5846 5844 5842 5839 5837 5835 5833 5830 5828 5825 5823 5820 5817 5815 5812 5809 5806 5803 5800 5797 5795 5792 5790 5788 5786 5784 5782 5780
5850 5851 5851 5852 5852 5852 5852 5851 5850 5849 5848 5847 5846 5844 5842 5841 5838 5836 5833 5831 5828 5826 5823 5821 5818 5815 5813 5810 5807 5804 5801 5798 5795 5792 5790 5787 5784 5782 5780 5778 5775 5773 5772
5843 5844 5844 5845 5845 5845 5845 5845 5844 5843 5842 5841 5839 5838 5836 5834 5832 5829 5827 5824 5821 5819 5816 5813 5811 5808 5805 5802 5799 5796 5793 5790 5787 5784 5781 5779 5776 5774 5771 5769 5766 5764 5762
5836 5837 5837 5837 5838 5838 5838 5837 5837 5836 5835 5833 5832 5831 5830 5827 5825 5822 5820 5817 5814 5811 5808 5805 5802 5799 5797 5794 5791 5788 5785 5782 5779 5776 5773 5770 5767 5765 5762 5760 5757 5755 5753
5828 5828 5829 5830 5830 5830 5830 5829 5829 5828 5827 5826 5825 5823 5822 5821 5818 5815 5812 5809 5806 5803 5800 5797 5794 5791 5788 5785 5782 5779 5776 5773 5770 5767 5764 5761 5758 5755 5752 5750 5747 5745 5743
5819 5820 5821 5821 5821 5822 5821 5821 5821 5820 5819 5818 5816 5814 5813 5812 5811 5809 5805 5801 5797 5794 5791 5788 5785 5782 5778 5775 5773 5770 5767 5764 5761 5758 5755 5752 5749 5746 5743 5740 5737 5735 5732
5810 5811 5812 5812 5813 5813 5813 5812 5812 5811 5810 5809 5808 5806 5804 5802 5800 5799 5798 5794 5790 5786 5782 5779 5776 5772 5769 5766 5763 5760 5757 5754 5752 5749 5746 5743 5739 5736 5733 5730 5727 5724 5722
5800 5801 5802 5803 5803 5804 5803 5803 5802 5801 5801 5800 5798 5797 5795 5792 5790 5788 5787 5785 5781 5777 5773 5770 5766 5763 5760 5757 5754 5751 5748 5745 5742 5739 5736 5733 5729 5726 5723 5720 5717 5714 5712
5790 5791 5792 5793 5793 5794 5794 5793 5792 5792 5791 5790 5788 5787 5785 5783 5781 5778 5776 5774 5771 5768 5764 5760 5756 5753 5750 5747 5744 5741 5738 5735 5732 5729 5726 5722 5719 5716 5713 5710 5707 5704 5702
5780 5781 5782 5783 5783 5783 5783 5783 5782 5781 5780 5779 5778 5776 5775 5773 5770 5768 5765 5763 5760 5758 5754 5751 5746 5743 5740 5737 5734 5731 5728 5725 5722 5718 5715 5712 5709 5706 5703 5700 5697 5694 5692
5769 5770 5771 5771 5772 5772 5772 5772 5771 5771 5770 5769 5767 5766 5764 5762 5760 5757 5755 5752 5750 5747 5744 5741 5737 5733 5730 5727 5724 5721 5718 5714 5711 5708 5705 5702 5699 5696 5693 5690 5687 5684 5682
5758 5758 5759 5760 5761 5760 5760 5760 5760 5759 5759 5758 5756 5755 5753 5751 5749 5746 5744 5741 5739 5736 5734 5730 5727 5723 5720 5717 5713 5710 5707 5704 5701 5698 5695 5692 5689 5686 5683 5680 5677 5674 5671
5746 5747 5748 5748 5749 5749 5749 5749 5749 5748 5747 5746 5745 5743 5742 5740 5738 5736 5733 5730 5727 5725 5723 5720 5716 5713 5710 5706 5703 5700 5697 5694 5691 5688 5685 5681 5678 5675 5672 5669 5666 5663 5660
5735 5735 5736 5737 5737 5737 5737 5737 5737 5736 5735 5734 5733 5732 5731 5729 5727 5724 5722 5719 5717 5714 5711 5709 5706 5702 5699 5696 5693 5690 5687 5683 5680 5677 5674 5670 5667 5664 5661 5658 5655 5652 5649
5723 5724 5725 5725 5725 5726 5725 5725 5725 5724 5724 5723 5722 5721 5719 5717 5716 5713 5711 5708 5706 5703 5701 5698 5695 5692 5689 5686 5683 5680 5676 5673 5670 5666 5663 5660 5656 5653 5650 5647 5644 5641 5638
5712 5712 5713 5713 5714 5714 5714 5714 5714 5713 5712 5711 5710 5709 5708 5706 5704 5702 5700 5697 5695 5692 5690 5688 5685 5682 5679 5676 5673 5670 5666 5662 5659 5655 5652 5649 5645 5642 5638 5635 5632 5629 5626
5700 5700 5701 5701 5702 5702 5702 5702 5702 5702 5701 5700 5699 5698 5696 5695 5693 5691 5689 5686 5684 5682 5680 5677 5675 5672 5669 5666 5662 5659 5656 5652 5648 5645 5641 5637 5634 5630 5627 5623 5620 5616 5613
5689 5689 5689 5690 5690 5690 5690 5690 5690 5690 5689 5689 5688 5687 5685 5684 5682 5680 5678 5676 5674 5672 5669 5667 5665 5662 5659 5655 5652 5649 5645 5642 5638 5634 5630 5626 5622 5619 5615 5611 5607 5604 5600
5677 5678 5678 5678 5679 5679 5679 5679 5679 5679 5678 5678 5677 5675 5674 5673 5671 5669 5668 5666 5664 5662 5659 5657 5654 5651 5648 5645 5642 5638 5635 5631 5627 5623 5619 5614 5611 5606 5602 5598 5594 5591 5587
5667 5667 5667 5667 5668 5668 5668 5668 5668 5668 5667 5667 5666 5665 5664 5662 5661 5659 5658 5656 5654 5651 5649 5647 5644 5641 5638 5635 5631 5628 5624 5620 5616 5611 5607 5603 5598 5594 5589 5585 5581 5577 5574
5656 5657 5657 5657 5657 5657 5657 5657 5657 5657 5656 5656 5655 5654 5653 5652 5651 5649 5648 5646 5644 5641 5639 5636 5634 5631 5627 5624 5620 5617 5612 5608 5604 5600 5595 5591 5585 5581 5576 5571 5567 5563 5559
5646 5646 5647 5647 5647 5647 5647 5647 5647 5646 5646 5646 5645 5644 5643 5642 5641 5639 5638 5636 5634 5631 5629 5626 5623 5620 5617 5613 5609 5606 5601 5597 5593 5588 5583 5579 5573 5568 5563 5558 5553 5549 5545
5636 5637 5637 5637 5637 5637 5637 5637 5637 5636 5636 5636 5635 5635 5634 5632 5631 5629 5628 5626 5624 5621 5619 5616 5613 5610 5606 5602 5598 5594 5590 5586 5581 5576 5571 5566 5561 5556 5551 5545 5539 5534 5530